Weather History for Lincoln, NE

Change the Weather History Date:

Saturday, August 2, 2014

  Actual Average Record
Temperature  
Mean Temperature 75 °F 77 °F  
Max Temperature 90 °F 88 °F 107 °F (1964)
Min Temperature 59 °F 66 °F 52 °F (1927)
Degree Days  
Heating Degree Days 0 0  
Month to date heating degree days 0 0  
Since 1 June heating degree days 4 17  
Since 1 July heating degree days 2 1  
Cooling Degree Days 10 12  
Month to date cooling degree days 20 24  
Year to date cooling degree days 779 735  
Since 1 June cooling degree days 619 656  
Growing Degree Days 24 (Base 50)    
Moisture  
Dew Point 62 °F    
Average Humidity 64    
Maximum Humidity 90    
Minimum Humidity 38    
Precipitation  
Precipitation 0.06 in 0.10 in 2.04 in (1905)
Month to date precipitation 0.06 0.21  
Year to date precipitation 16.22 18.30  
Snow  
Snow 0.00 in 0.00 in - ()
Month to date snowfall 0.0 0.0  
Since 1 July snowfall 0.0 0.0  
Snow Depth 0.00 in    
Sea Level Pressure  
Sea Level Pressure 30.09 in    
Wind  
Wind Speed 7 mph (SE)    
Max Wind Speed 15 mph    
Max Gust Speed 20 mph    
Visibility 9 miles    
Events Rain    
T = Trace of Precipitation, MM = Missing Value Source: NWS Daily Summary

Daily Weather History Graph

Daily Weather History Graph

Search for Another Location

Airport:

Trip Planner

Search our weather history database for the weather conditions in past years. The results will help you decide how hot, cold, wet, or windy it might be!

Date:

Astronomy

Aug. 02, 2014 Rise Set
Actual Time 6:24 AM CDT 8:41 PM CDT
Civil Twilight 5:53 AM CDT 9:12 PM CDT
Nautical Twilight 5:15 AM CDT 9:49 PM CDT
Astronomical Twilight 4:33 AM CDT 10:31 PM CDT
Moon 12:50 PM CDT (8/2) 11:57 PM CDT (8/2)
Length of Visible Light 15h 18m
Length of Day
14h 17m
Waxing Crescent, 37% of the Moon is Illuminated
Aug 2
Waxing Crescent
Aug 3
First Quarter
Aug 10
Full
Aug 17
Last Quarter
Aug 25
New

Hourly Weather History & Observations

Time (CDT) Temp. Heat Index Dew Point Humidity Pressure Visibility Wind Dir Wind Speed Gust Speed Precip Events Conditions
12:54 AM 64.9 °F - 59.0 °F 81% 30.10 in 10.0 mi North 4.6 mph - N/A   Clear
1:54 AM 62.1 °F - 57.9 °F 86% 30.10 in 9.0 mi North 4.6 mph - N/A   Clear
2:54 AM 61.0 °F - 57.0 °F 87% 30.11 in 9.0 mi Calm Calm - N/A   Clear
3:54 AM 60.1 °F - 57.0 °F 90% 30.12 in 9.0 mi NNE 5.8 mph - N/A   Scattered Clouds
4:54 AM 60.1 °F - 57.0 °F 90% 30.13 in 9.0 mi North 4.6 mph - N/A   Clear
5:54 AM 60.1 °F - 57.0 °F 90% 30.12 in 9.0 mi Calm Calm - N/A   Clear
6:54 AM 60.1 °F - 57.0 °F 90% 30.13 in 8.0 mi NNW 4.6 mph - N/A   Clear
7:54 AM 66.0 °F - 60.1 °F 81% 30.13 in 8.0 mi North 4.6 mph - N/A   Clear
8:54 AM 70.0 °F - 62.1 °F 76% 30.13 in 9.0 mi South 5.8 mph - N/A   Clear
9:54 AM 75.0 °F - 63.0 °F 66% 30.13 in 9.0 mi SE 5.8 mph - N/A   Clear
10:54 AM 79.0 °F - 64.0 °F 60% 30.14 in 9.0 mi South 6.9 mph - N/A   Clear
11:54 AM 84.0 °F 85.4 °F 64.0 °F 51% 30.12 in 10.0 mi SSE 6.9 mph - N/A   Clear
12:54 PM 75.9 °F - 66.9 °F 74% 30.13 in 4.0 mi SSE 6.9 mph - 0.04 in Rain Light Rain
1:54 PM 80.1 °F 82.9 °F 69.1 °F 69% 30.11 in 10.0 mi SSE 9.2 mph - 0.02 in   Mostly Cloudy
2:54 PM 86.0 °F 88.2 °F 66.0 °F 51% 30.09 in 10.0 mi SSE 9.2 mph - N/A   Partly Cloudy
3:54 PM 89.1 °F 90.0 °F 63.0 °F 42% 30.06 in 10.0 mi South 10.4 mph - N/A   Clear
4:54 PM 89.1 °F 89.0 °F 61.0 °F 39% 30.04 in 10.0 mi South 11.5 mph 18.4 mph N/A   Clear
5:54 PM 88.0 °F 87.9 °F 61.0 °F 40% 30.04 in 10.0 mi SSE 9.2 mph - N/A   Clear
6:54 PM 87.1 °F 86.5 °F 59.0 °F 39% 30.04 in 10.0 mi SSE 10.4 mph - N/A   Clear
7:54 PM 84.0 °F 84.5 °F 62.1 °F 47% 30.03 in 10.0 mi SE 8.1 mph - N/A   Clear
8:54 PM 81.0 °F 82.7 °F 64.9 °F 58% 30.03 in 9.0 mi ESE 11.5 mph - N/A   Clear
9:54 PM 78.1 °F - 64.0 °F 62% 30.05 in 10.0 mi SE 11.5 mph - N/A   Clear
10:54 PM 77.0 °F - 64.0 °F 64% 30.05 in 10.0 mi SE 10.4 mph - N/A   Clear
11:54 PM 75.0 °F - 64.0 °F 69% 30.05 in 10.0 mi South 9.2 mph - N/A   Clear